BREEZE-KM DEB, 41719

Orbit data source: Space-Track

BREEZE-KM DEB, 41719 is space debris in LEO originally from a launch on Tue, 31 Mar 2015 UTC launched from the Plesetsk Missile And Space Complex (PKMTR). Debris objects in space refer to the collection of defunct objects orbiting the Earth. Examples of debris include non-operational satellites, rocket bodies, and fragments generated from explosions, collisions, or faulty payload assembly.

Loading next visibility...
Identifier
41719, 2015-020G
Orbit
LEO
Last TLE update
1 day ago
Origin
Manufacturer
Khrunichev
Mission
Spacecraft
Bus & Motor
Unknown
Mass
Unknown
Launch date (UTC)
2015-03-31 (10 years ago)
Launch vehicle
Unknown
Launch site
Plesetsk Missile And Space Complex (PKMTR)
Object type
Payload
Rocket body
Debris
Shape & HBR
Unknown
Radar Cross Section
Small (<0.1 m²)

Expand to show TLE details & history

TLE from 1 day ago
0 BREEZE-KM DEB
1 41719U 15020G   25181.19485364  .00000042  00000-0  13925-3 0  9996
2 41719  82.4911 106.2218 0220707 228.4055 129.7945 12.75171068467599
Epoch: 2025-06-30T04:40Z
TLE epoch observation values (Epoch: 2025-06-30T04:40:35.354Z)
Latitude
-0.00008°
Longitude
117.56633°
Altitude
1,475.213 km
Speed
7.074 km/s
True Right ascension
07h 04m 53s
True Declination
0° 00' 00"
Sunlit
Object was in daylight at epoch
Visualization orbit readout
Latitude
66.76038°
Longitude
134.5636°
Altitude
1,530.065 km
Speed
7.034 km/s
Apparent Right ascension
08h 39m 03s
Apparent Declination
21° 39' 08"
Sunlit
Object is in daylight
Visualization observer readout
Local Sidereal Time
20:55:45
Azimuth
4.408° NNE
Elevation
-28.309°
Doppler factor
1
Orbital elements
Apogee altitude
1,528.998 km
Perigee altitude
1,187.503 km
Semi-major axis
7,736.388 km
Eccentricity
0.02207
Inclination
82.4911°
RAAN
106.2218°
Arg. of periapsis
228.4055°
True anomaly
Unknown
Mean anomaly
129.7945°
Eccentric anomaly
Unknown
Mean motion
3.1896 °/min
Orbital period
112.87 mins
BSTAR
0.00013925
Loading maneuver chart data...
Loading SW <> Apogee altitude chart data...
Loading historical data...
Loading historical data...
Loading historical data...
Loading historical data...
Loading historical data...
Loading historical data...
Loading historical data...

BREEZE-KM DEB Visibility forecast

Observer location: undefined°, undefined°

Span
Click to sort rows by Start time (UTC) header in descending order
Start Az.
Max El. time (UTC)
Max El. Az.
Max El.
End time (UTC)
End Az.
14 mins2025-07-01 18:26:30.167Z141.523° SSE2025-07-01 18:33:30.167Z82.983° E29.391°2025-07-01 18:40:30.167Z26.819° NE
16 mins2025-07-01 20:19:30.167Z210.218° SW2025-07-01 20:26:30.167Z275.614° WNW38.906°2025-07-01 20:35:30.167Z359.335° N
14 mins2025-07-02 06:16:30.167Z1.99° NNE2025-07-02 06:23:30.167Z92.998° ESE40.77°2025-07-02 06:30:30.167Z157.512° S
10 mins2025-07-02 08:11:30.167Z320.957° NNW2025-07-02 08:16:30.167Z274.704° WNW23.418°2025-07-02 08:21:30.167Z230.453° WSW
|